Home   Weather   Pasadena   Past weeks

Flag for USA Past Weather in Pasadena, California, USA — Yesterday and Last 2 Weeks

Now
42 °F

Clear.


Feels Like: 42 °F
Forecast: 45 / 61 °F
Wind: No wind

Location: Bob Hope Airport

Current Time: Jan 18, 2017 at 6:11:40 am

Latest Report: Jan 18, 2017 at 4:53 am


Visibility: 10 mi

Pressure: 30.11 "Hg

Humidity: 76%

Dew Point: 35 °F

Location of PasadenaLocation

Past Weather in Pasadena — Graph

°F

Pasadena Temperature Yesterday

Maximum temperature yesterday: 66 °F (at 1:53 pm)
Minimum temperature yesterday: 41 °F (at 5:53 am)
Average temperature yesterday: 53 °F

High & Low Weather Summary for the Past Weeks

 TemperatureHumidityPressure
High74 °F (Jan 8, 12:53 pm)97% (Jan 4, 11:00 pm)30.20 "Hg (Jan 4, 11:00 pm)
Low41 °F (Jan 17, 5:53 am)26% (Jan 8, 4:53 pm)29.88 "Hg (Jan 12, 1:53 pm)
Average54 °F76%30.04 "Hg
* Reported Jan 3 4:53 am — Jan 18 4:53 am, Pasadena, Weather by CustomWeather, © 2017

Note: Actual official high and low records may vary slightly from our data, if they occured in-between our weather recording intervals... More about our weather records

Advertising

Pasadena Weather History for the Previous 24 Hours

Scroll right to see more
 ConditionsComfort  
Time TempWeatherWind HumidityBarometerVisibility
4:53 am
Wed, Jan 18
42 °FClear.No wind76%30.11 "Hg10 mi
3:53 am44 °FClear.No wind73%30.13 "Hg10 mi
2:53 am43 °FClear.3 mph76%30.12 "Hg10 mi
1:53 am44 °FClear.No wind76%30.11 "Hg10 mi
12:53 am45 °FClear.No wind74%30.12 "Hg10 mi
11:53 pm
Tue, Jan 17
47 °FClear.No wind69%30.13 "Hg10 mi
10:53 pm49 °FClear.3 mph64%30.13 "Hg10 mi
9:53 pm51 °FClear.8 mph59%30.12 "Hg10 mi
8:53 pm51 °FClear.7 mph61%30.11 "Hg10 mi
7:53 pm54 °FClear.3 mph53%30.09 "Hg10 mi
6:53 pm58 °FClear.No wind46%30.10 "Hg10 mi
5:53 pm58 °FClear.3 mph46%30.09 "Hg10 mi
4:53 pm59 °FSunny.3 mph44%30.07 "Hg10 mi
3:53 pm62 °FSunny.10 mph43%30.04 "Hg10 mi
2:53 pm64 °FSunny.8 mph33%30.05 "Hg10 mi
1:53 pm66 °FSunny.9 mph28%30.05 "Hg10 mi
12:53 pm64 °FSunny.6 mph28%30.06 "Hg10 mi
11:53 am62 °FSunny.5 mph32%30.06 "Hg10 mi
10:53 am61 °FSunny.3 mph35%30.09 "Hg10 mi
9:53 am56 °FSunny.No wind44%30.09 "Hg10 mi
8:53 am50 °FSunny.No wind57%30.09 "Hg10 mi
7:53 am44 °FSunny.3 mph68%30.09 "Hg10 mi
6:53 am42 °FClear.No wind68%30.06 "Hg10 mi
Weather by CustomWeather, © 2017

See weather overviewHow to use our weather pages